Location: Caltech
(34.1382°N, 118.1253°W)
Time: 18:05:28
(UTC-08:00)

Cosmos 1125 Rocket - Visible Passes

Search period start: 22 February 2018 00:00
Search period end: 04 March 2018 00:00
Orbit: 758 x 780 km, 74.0° (Epoch: 21 February)

Date Brightness Start Highest point End Pass type
(mag) Time Alt. Az. Time Alt. Az. Time Alt. Az.
22 Feb 6.1 03:30:42 10° SE 03:33:41 16° E 03:36:41 10° ENE visible
22 Feb 3.7 05:10:31 11° SW 05:15:15 48° WNW 05:20:17 10° N visible
23 Feb 3.3 04:36:22 37° SSW 04:38:28 87° WNW 04:43:41 10° NNE visible
24 Feb 4.1 04:01:38 51° ESE 04:01:46 51° ESE 04:06:48 10° NNE visible
24 Feb 5.0 05:42:00 13° W 05:44:08 16° WNW 05:47:20 10° NNW visible
25 Feb 5.5 03:26:34 25° ENE 03:26:34 25° ENE 03:29:34 10° NE visible
25 Feb 4.3 05:06:54 27° WNW 05:07:08 28° WNW 05:11:33 10° N visible
26 Feb 6.4 02:51:15 11° ENE 02:51:15 11° ENE 02:51:39 10° ENE visible
26 Feb 4.1 04:31:35 39° NNW 04:31:35 39° NNW 04:35:16 10° N visible
27 Feb 4.9 03:56:06 30° NNE 03:56:06 30° NNE 03:58:40 10° NNE visible
28 Feb 5.8 03:20:30 18° NNE 03:20:30 18° NNE 03:21:47 10° NNE visible
28 Feb 5.3 05:00:49 14° NW 05:00:49 14° NW 05:02:19 10° NNW visible
01 Mar 5.4 04:25:07 17° NNW 04:25:07 17° NNW 04:26:32 10° N visible
02 Mar 5.7 03:49:20 15° N 03:49:20 15° N 03:50:15 10° N visible
03 Mar 6.2 03:13:29 11° NNE 03:13:29 11° NNE 03:13:38 10° NNE visible
